{"data":{"norad_id":66841,"epoch":"2026-09-20T05:40:30.163008Z","epoch_age_seconds":107205,"freshness":"FRESH","line1":"1 66841U 25280W   26263.23646022  .00003297  00000+0  28395-3 0  9996","line2":"2 66841  70.0007 204.0725 0003080 269.1779  90.9027 14.98337218 45218","mean_motion":14.98337218,"eccentricity":0.000308,"inclination_deg":70.0007,"raan_deg":204.0725,"arg_perigee_deg":269.1779,"mean_anomaly_deg":90.9027,"bstar":0.00028395,"rev_number":4521,"period_min":96.10653614559,"perigee_km":569.89291742889,"apogee_km":574.17422249999,"semimajor_km":6950.1705699644,"source":"CELESTRAK","updated_at":"2026-09-21T09:00:36.023827Z"}}